Annette Island, AK

10:42 PM AKDT on May 28, 2017 (GMT -0800)
Annette Island

Weather History for PANT - January, 2014

Change the Weather History Date:

Friday, January 10, 2014

  Actual Average Record
Temperature  
Mean Temperature 36 °F 37 °F  
Max Temperature 39 °F 41 °F 52 °F (2016)
Min Temperature 32 °F 32 °F 6 °F (1975)
Degree Days  
Heating Degree Days 29 28  
Month to date heating degree days 278 280  
Since 1 July heating degree days 2991 3191  
Cooling Degree Days 0    
Month to date cooling degree days 0  
Year to date cooling degree days 0  
Moisture  
Dew Point 33 °F    
Average Humidity 0    
Maximum Humidity 0    
Minimum Humidity 0    
Precipitation  
Precipitation 0.12 in 0.34 in 3.36 in (2010)
Month to date precipitation 3.05 3.49  
Year to date precipitation 3.05 3.49  
Snow  
Snow T in 0.30 in 3.70 in (1983)
Month to date snowfall T 2.6  
Since 1 July snowfall 9.1 14.3  
Snow Depth 0.00 in    
Sea Level Pressure  
Sea Level Pressure 29.48 in    
Wind  
Wind Speed 5 mph (SE)    
Max Wind Speed 13 mph    
Max Gust Speed 24 mph    
Visibility 9 miles    
Events Rain , Snow    
T = Trace of Precipitation, MM = Missing Value Source: NWS Daily Summary

Daily Weather History Graph

Daily Weather History Graph

Search for Another Location

Airport or City:

Trip Planner

Search our weather history database for the weather conditions in past years. The results will help you decide how hot, cold, wet, or windy it might be!

Date:

Astronomy

Jan. 10, 2014 Rise Set
Actual Time 8:06 AM AKST 3:41 PM AKST
Civil Twilight 7:22 AM AKST 4:25 PM AKST
Nautical Twilight 6:36 AM AKST 5:12 PM AKST
Astronomical Twilight 5:52 AM AKST 5:55 PM AKST
Moon 12:03 PM AKST (1/10) 3:04 AM AKST (1/10)
Length of Visible Light 9h 02m
Length of Day
7h 35m
Waxing Gibbous, 76% of the Moon is Illuminated
Jan 10
Waxing Gibbous
Jan 15
Full
Jan 23
Last Quarter
Jan 30
New
Feb 6
First Quarter

Hourly Weather History & Observations

Time (AKST) Temp. Windchill Dew Point Humidity Pressure Visibility Wind Dir Wind Speed Gust Speed Precip Events Conditions
12:53 AM 37.0 °F 33.3 °F 33.1 °F 86% 29.66 in 10.0 mi SSW 4.6 mph - N/A   Mostly Cloudy
1:53 AM 37.0 °F 34.5 °F 33.1 °F 86% 29.68 in 10.0 mi SSW 3.5 mph - N/A   Mostly Cloudy
2:34 AM 37.0 °F 33.3 °F 34.0 °F 89% 29.68 in 10.0 mi SW 4.6 mph - 0.00 in Rain Light Rain
2:53 AM 36.0 °F 32.1 °F 35.1 °F 97% 29.69 in 7.0 mi SW 4.6 mph - 0.02 in Rain Rain
3:40 AM 35.1 °F - 35.1 °F 100% 29.68 in 10.0 mi Calm Calm - 0.03 in   Overcast
3:53 AM 35.1 °F 32.2 °F 35.1 °F 100% 29.69 in 10.0 mi SE 3.5 mph - 0.03 in   Mostly Cloudy
4:07 AM 35.1 °F 32.2 °F 35.1 °F 100% 29.68 in 10.0 mi SSE 3.5 mph - N/A   Overcast
4:40 AM 36.0 °F 33.3 °F 35.1 °F 97% 29.69 in 10.0 mi South 3.5 mph - N/A   Overcast
4:53 AM 36.0 °F - 35.1 °F 97% 29.69 in 10.0 mi Calm Calm - N/A   Overcast
5:53 AM 34.0 °F - 34.0 °F 100% 29.69 in 10.0 mi Calm Calm - N/A   Mostly Cloudy
6:53 AM 35.1 °F 32.2 °F 35.1 °F 100% 29.68 in 10.0 mi WSW 3.5 mph - N/A   Overcast
7:53 AM 35.1 °F 31.0 °F 34.0 °F 96% 29.71 in 10.0 mi WSW 4.6 mph - N/A   Mostly Cloudy
8:53 AM 33.1 °F 30.0 °F 33.1 °F 100% 29.71 in 10.0 mi East 3.5 mph - N/A   Mostly Cloudy
9:53 AM 34.0 °F - 34.0 °F 100% 29.71 in 10.0 mi Calm Calm - N/A   Mostly Cloudy
10:53 AM 35.1 °F - 35.1 °F 100% 29.70 in 10.0 mi Calm Calm - N/A   Clear
11:53 AM 37.9 °F 35.5 °F 37.0 °F 97% 29.67 in 10.0 mi ESE 3.5 mph - N/A   Overcast
12:37 PM 39.0 °F 34.0 °F 36.0 °F 89% 29.65 in 10.0 mi South 6.9 mph - 0.00 in   Overcast
12:53 PM 39.0 °F 34.8 °F 36.0 °F 89% 29.64 in 10.0 mi South 5.8 mph - 0.00 in   Overcast
1:00 PM 39.0 °F - 35.1 °F 86% 29.62 in 10.0 mi North - - N/A   Overcast
1:53 PM 39.0 °F 33.4 °F 35.1 °F 86% 29.59 in 10.0 mi SE 8.1 mph - N/A   Overcast
2:14 PM 37.9 °F 32.7 °F 35.1 °F 89% 29.56 in 10.0 mi ESE 6.9 mph - N/A   Overcast
2:22 PM 37.9 °F 30.9 °F 34.0 °F 86% 29.56 in 10.0 mi SE 10.4 mph - N/A   Overcast
2:53 PM 37.0 °F 33.3 °F 34.0 °F 89% 29.54 in 10.0 mi ESE 4.6 mph - N/A   Overcast
3:53 PM 37.0 °F 31.0 °F 36.0 °F 96% 29.49 in 10.0 mi ESE 8.1 mph - N/A   Partly Cloudy
4:53 PM 37.0 °F 31.0 °F 32.0 °F 82% 29.41 in 10.0 mi East 8.1 mph - N/A   Scattered Clouds
5:53 PM 37.0 °F 31.6 °F 30.9 °F 79% 29.33 in 10.0 mi Variable 6.9 mph - N/A   Clear
6:53 PM 37.0 °F 30.4 °F 30.9 °F 79% 29.25 in 10.0 mi ENE 9.2 mph 19.6 mph N/A   Overcast
7:53 PM 37.0 °F 31.0 °F 28.9 °F 73% 29.16 in 10.0 mi ENE 8.1 mph - N/A   Overcast
8:53 PM 37.0 °F 29.8 °F 28.0 °F 70% 29.11 in 10.0 mi NE 10.4 mph 17.3 mph N/A   Overcast
9:53 PM 37.0 °F 34.5 °F 26.1 °F 65% 29.05 in 10.0 mi ENE 3.5 mph - N/A   Overcast
10:32 PM 34.0 °F 25.5 °F 30.9 °F 89% 29.02 in 4.0 mi ENE 11.5 mph 18.4 mph 0.01 in Snow Light Snow
10:53 PM 33.1 °F 26.9 °F 32.0 °F 96% 29.01 in 4.0 mi Variable 6.9 mph - 0.02 in Snow Light Snow
11:06 PM 32.0 °F 24.8 °F 32.0 °F 100% 28.99 in 2.0 mi NE 8.1 mph - 0.01 in Snow Light Snow
11:30 PM 32.0 °F 24.8 °F 32.0 °F 100% 28.95 in 3.0 mi North 8.1 mph - 0.04 in Snow Light Snow
11:53 PM 33.1 °F 28.7 °F 32.0 °F 96% 28.94 in 7.0 mi Variable 4.6 mph - 0.05 in Snow Light Snow